Location: Newark
(42.7133°N, 87.7910°W)
Time: 19:48:24
(UTC+00:00)

Tiros 1 - Pass Details

Date: 20 September 2019
Orbit: 630 x 664 km, 48.4° (Epoch: 21 October)

Event Time Altitude Azimuth Distance (km) Brightness Sun altitude
Rises 22:23:43 0° 290° (WNW) 2,951 11.5 15.3°
Reaches altitude 10° 22:26:09 10° 297° (WNW) 2,034 10.6 14.9°
Maximum altitude 22:30:40 46° 11° (N) 857 7.8 14.1°
Drops below altitude 10° 22:35:08 10° 85° (E) 2,014 9.1 13.3°
Sets 22:37:31 0° 92° (E) 2,917 9.9 12.9°
